Showing default

JCSAT 2B, 41471

Orbit data source: Space-Track

JCSAT 2B, 41471 is a payload satellite owned by Sky Perfect JSAT (JP) in GEO that was launched on Fri, 06 May 2016 UTC via an FALCON 9 launch vehicle from the Air Force Eastern Test Range (AFETR). Payload-class satellites include a variety of spacecraft equipped with specific instruments for various scientific and technological missions. These include communications satellites like Starlink; space stations such as the ISS; scientific satellites like the Hubble; Earth observation satellites from companies like Planet Labs, Umbra, and HawkEye 360; GPS; miniature CubeSats for education and research; and military/defense satellites.

Not visible in the next 10 days
Identifier
41471, 2016-028A
Orbit
GEO
Country
Flag of JPJP / JPN
Related business
Manufacturer
SS/Loral (MDA)
Mission
Operational Commercial Communications
Bus & Motor
LS-1300, R-4D
Mass
4,696 kg wet, ~2,500 kg dry
Launch date (UTC)
2016-05-06 (10 years ago)
Launch vehicle
FALCON 9
Launch site
Air Force Eastern Test Range (AFETR)
Object type
Payload
Rocket body
Debris
Shape & HBR
Box + 2 Pan, 13.5 m
Radar Cross Section
26.964 m², Large (>1 m²)

Expand to show TLE details & history
Last TLE update: 5 hours ago

TLE from 5 hours ago
0 JCSAT 2B
1 41471U 16028A   26145.54280769 -.00000166  00000-0  00000+0 0  9996
2 41471   0.0180 328.2345 0001164 103.6255 160.6762  1.00270471 36907
Epoch: 2026-05-25T13:01Z
TLE epoch observation values (Epoch: 2026-05-25T13:01:38.584Z)
Latitude
-0.03461°
Longitude
154.00294°
Altitude
35,791.111 km
Speed
3.074 km/s
True Right ascension
15h 30m 10s
True Declination
0° 02' 04"
Sunlit
Object was in daylight at epoch
Visualization orbit readout
Latitude
Unknown
Longitude
Unknown
Altitude
Unknown
Speed
Unknown
Apparent Right ascension
Unknown
Apparent Declination
Unknown
Sunlit
N/A
Visualization observer readout
Local Sidereal Time
03:34:47
Azimuth
Unknown
Elevation
Unknown
Doppler factor
Unknown
Orbital elements
Apogee altitude
35,792.942 km
Perigee altitude
35,783.126 km
Semi-major axis
42,166.171 km
Eccentricity
0.00012
Inclination
0.018°
RAAN
328.2345°
Arg. of periapsis
103.6255°
True anomaly
160.68061°
Mean anomaly
160.6762°
Eccentric anomaly
160.67841°
Mean motion
0.25067 °/min
Orbital period
1,436.17 mins
BSTAR
0
Loading maneuver chart data...
Computing Atmospheric mass density...
Loading historical data...
Loading historical data...
Loading historical data...
Loading historical data...
Loading historical data...
Loading historical data...
Loading historical data...
Other satellites on launch #28 in the year 2016 (2016-05-06 UTC)

Documentation

Showing up to 5 results
|